Location: M�nchen
(48.1404°N, 11.6043°E)
Time: 01:41:44
(UTC+01:00)

N. Korean satellite - Visible Passes

Search period start: 22 January 2018 00:00
Search period end: 01 February 2018 00:00
Orbit: 458 x 515 km, 97.2° (Epoch: 20 January)

Date Brightness Start Highest point End Pass type
(mag) Time Alt. Az. Time Alt. Az. Time Alt. Az.
22 Jan 6.4 07:15:50 10° N 07:19:17 69° WNW 07:22:42 10° SSW visible
22 Jan 6.4 17:55:08 10° SSE 17:58:42 75° ENE 18:02:13 10° N visible
23 Jan 7.2 06:52:11 10° NNE 06:55:36 58° E 06:59:00 10° S visible
23 Jan 7.0 17:31:45 10° SE 17:35:05 38° ENE 17:38:23 10° N visible
23 Jan 9.7 19:06:27 10° SW 19:08:45 16° W 19:11:04 10° NW visible
24 Jan 8.7 06:28:45 10° NNE 06:31:50 30° E 06:34:55 10° SSE visible
24 Jan 8.7 18:41:47 10° SSW 18:44:55 29° W 18:48:03 10° NNW visible
25 Jan 9.8 06:05:44 10° NE 06:08:00 16° E 06:10:16 10° SE visible
25 Jan 7.3 18:17:40 10° S 18:21:10 56° W 18:24:38 10° NNW visible
26 Jan 6.4 07:14:37 10° N 07:18:04 71° WNW 07:21:31 10° SSW visible
26 Jan 6.4 17:53:58 10° SSE 17:57:29 73° ENE 18:00:59 10° N visible
27 Jan 7.2 06:50:56 10° NNE 06:54:22 57° E 06:57:48 10° S visible
27 Jan 9.7 19:05:13 10° SW 19:07:31 16° W 19:09:50 10° NW visible
28 Jan 8.7 06:27:31 10° NNE 06:30:36 29° E 06:33:41 10° SSE visible
28 Jan 8.7 18:40:34 10° SSW 18:43:41 29° W 18:46:48 10° NNW visible
29 Jan 9.8 06:04:30 10° NE 06:06:45 16° E 06:09:00 10° SE visible
29 Jan 7.2 18:16:27 10° S 18:19:55 58° W 18:23:22 10° NNW visible
30 Jan 6.4 17:52:44 10° SSE 17:56:13 70° ENE 17:59:42 10° N visible
31 Jan 7.3 06:49:39 10° NNE 06:53:06 55° E 06:56:33 10° S visible
31 Jan 9.7 19:03:57 10° SW 19:06:16 17° W 19:08:34 10° NW visible
